РПИ Хабаровск

Региональный центр ЕС ОрВД Хабаровск (РегЦ Хабаровск)

Зона ответственности РегЦ Хабаровск составляет около 2,5 миллионов квадратных километров. Это небо над Хабаровским и Приморским краями, Еврейской автономной областью, Амурской и Сахалинской областями, а также над нейтральными водами Охотского и Японского морей.

На территории филиала расположено 43 аэродрома различных ведомств, из которых 20 относится к гражданской авиации, из них 4 аэропорта международные: Хабаровск (Новый), Владивосток (Кневичи), Благовещенск (Игнатьево), Южно-Сахалинск (Хомутово). Ряд аэродромов относится к категории совместного базирования или использования.

Секторы РЦ

Хабаровск Контроль (UHHH_CTR) - 124.500

Хабаровск Контроль - Сектор 1 (UHHH_1_CTR) - 126.600

Хабаровск Контроль - Сектор 2 (UHHH_2_CTR) - 135.100

Хабаровск Контроль - Сектор 3 (UHHH_3_CTR) - 133.700

Лого Хабаровск
Руководство

Maxim Osmolovskiy

Начальник РегЦ ЕС ОрВД (Хабаровск)

Nikita Zikeev

Начальник службы организации мероприятий
Инструкторы РПИ
Ivan Aksenenko (Instructor)
Maxim Osmolovskiy (Instructor)
Nikolay Yamushev * (Controller)
Sergey Balandin (Senior Instructor)
Входит в состав
Восточная Россия

Диспетчеры РПИ

Диспетчер Рейтинг Допуски *
Ashot Hakobyan Controller UHHH_CTR
Lihan Bao Controller UHHH_CTR
Denis Makosov Controller UHHH_CTR
Igor Melnick Supervisor UHHH_CTR
Ivan Aksenenko Instructor UHHH_CTR
Maxim Korobko Senior Student UHHH_CTR  *
Maxim Osmolovskiy Instructor UHHH_CTR
Nikolay Yamushev Controller UHHH_CTR
Sergey Balandin Senior Instructor UHHH_CTR
Vadim Kotelenec Senior Student UHHH_CTR  *, UHHH_APP(UHHH+UHHT)
Alexander Veretentsev Student 2 UHWW_TWR
Alexey Rodionov Student 2 UHHH_TWR(UHHH+UHHT)
Alexsey Zelenov Student UHHH_GND, UHWW_GND
Andrey Tyrtyshnikov Senior Student UHWW_APP
Egor Garifulin Student 2 UHHH_TWR(UHHH+UHHT) , UHSS_TWR, UHWW_TWR
Georgii Stepanov Student UHWW_GND
Ivan Pivovarov Student 2 UHHH_GND, UHWW_TWR
Matvei Udalov Student UHHH_GND
Maxim Sukhorukov Student 2 UHHH_TWR(UHHH+UHHT)
Nikita Brynkov Student 2 UHSS_R_APP*, UHWW_TWR
Nikita Razumov Student 2 UHSS_TWR, UHWW_TWR
Nikita Zikeev Senior Student UHSS_R_APP, UHWW_APP
Nikolai Sholom Student 2 UHHH_TWR(UHHH+UHHT) , UHSS_TWR
Roman Vorontsov Student UHHH_GND
Stepan Paliy Student UHHH_TWR(UHHH+UHHT)
Vadim Zhirnov Student UHHH_GND, UHWW_TWR*

Аэропорты РПИ

ICAO Город Название Погода
UHBB Благовещенск Игнатьево UHBB 241030Z 20002MPS 9999 FEW033 19/06 Q1014 R36R/090062 NOSIG RMK QFE743/0990
UHWW Владивосток Владивосток UHWW 241030Z 36002MPS 9999 NSC 14/06 Q1015 R25L/0///70 NOSIG RMK QFE760
UHKD Комсомольск-на-Амуре Дзёмги
UHKK Комсомольск-на-Амуре Хурба
UHNN Николаевск-на-Амуре Николаевск-на-Амуре
UHOO Охотск Охотск
UHKG Советская Гавань Каменный Ручей
UHKM Советская Гавань Май-Гатка
UHHH Хабаровск Хабаровск UHHH 241030Z 25005MPS CAVOK 15/05 Q1011 R88/090060 NOSIG RMK QFE752/1003
UHSS Южно-Сахалинск Хомутово UHSS 241030Z 36005MPS 9999 FEW040 BKN/// 03/M00 Q1011 R01/70D NOSIG RMK QFE757/1010
UHNA Аян Аян
UHNB Богородское Богородское
UHSB Буревестник Буревестник
UHHD Дальнереченск Дальнереченск
UHBE Зея Зея
UHSO Зональное Зональное
UHWK Кавалерово Кавалерово
UHSI Курильск Итуруп
UHBI Магдагачи Магдагачи
UHSN Ноглики Ноглики
UHSH Оха Новостройка
UHWP Пластун Пластун
UHBS Свободный Свободный
UHBW Тында Тында
UHHT Хабаровск Хабаровск МВЛ
UHHY Чумикан Чумикан
UHSK Шахтерск Шахтёрск
UHBP Экимчан Экимчан
UHSM Южно-Курильск Менделеево